Regional Weather Roundup
Issued by NWS Cleveland, OH

Home | Current Version | Previous Version | Graphics & Text | Print | Product List | Glossary On
Versions: 1 2 3 4 5 6 7 8 9 10 11 12 13 14 15 16 17 18 19 20 21 22 23 24 25 26 27 28 29 30 31 32 33 34 35 36 37 38 39 40 41 42 43 44 45 46 47 48 49 50
000
ASUS41 KCLE 012202
RWRCLE
OHIO REGIONAL WEATHER ROUNDUP
NATIONAL WEATHER SERVICE CLEVELAND, OH
600 PM EDT WED OCT 01 2014

NOTE: "FAIR" INDICATES FEW OR NO CLOUDS BELOW 12,000 FEET WITH NO
SIGNIFICANT WEATHER AND/OR OBSTRUCTIONS TO VISIBILITY.

OHZ001>008-015>018-024>027-034-035-043-044-012300-
   NORTHWEST OHIO

CITY           SKY/WX    TMP DP  RH WIND       PRES   REMARKS
DEFIANCE       SUNNY     67  48  50 S7        30.00S
FINDLAY        SUNNY     69  49  48 E3        29.99F
TOLEDO EXPRESS SUNNY     67  52  58 E5        30.00S
TOLEDO EXEC    MOSUNNY   65  54  67 E6        30.02R
LIMA           SUNNY     70  49  47 SE5       29.99F
$$

OHZ009>014-019>023-028>033-038-089-012300-
   NORTHEAST OHIO

CITY           SKY/WX    TMP DP  RH WIND       PRES   REMARKS
CLE-HOPKINS    MOSUNNY   65  59  81 N8        30.03S
CLE-LAKEFRONT  MOSUNNY   66  59  78 NE6       30.01S
CUY CO. ARPT   PTSUNNY   66  63  88 N7        30.01F
LORAIN-ELYRIA  SUNNY     68  58  70 NE6       30.01F
ASHTABULA      MOSUNNY   68  60  75 N5        30.02S
AKRON-CANTON   PTSUNNY   64  55  72 S6        30.02S
WOOSTER        MOSUNNY   65  55  70 S8        30.03S
MANSFIELD      SUNNY     65  53  65 E8        30.02S
YOUNGSTOWN     MOSUNNY   66  57  72 SE6       30.02S
$$

OHZ042-051>053-060>062-070>072-077>081-012300-
  SOUTHWEST OHIO

CITY           SKY/WX    TMP DP  RH WIND       PRES   REMARKS
CINC-COVINGTON MOSUNNY   77  54  44 N3        29.98S
CINC-LUNKEN    SUNNY     74  55  51 NE5       29.98S
HAMILTON       SUNNY     72  52  49 NE3       30.00S
DAYTON         SUNNY     67  51  56 S7        30.01F
WRIGHT-PAT AFB SUNNY     68  51  53 S3        30.00F
DAYTON GENERAL SUNNY     67  50  54 E3        30.00S
WILMINGTON     SUNNY     71  43  36 CALM      30.00F
$$

OHZ036-037-039>041-045>050-054>059-063>069-073>076-082>088-012300-
  CENTRAL AND SOUTHEAST OHIO

CITY           SKY/WX    TMP DP  RH WIND       PRES   REMARKS
COLUMBUS       MOSUNNY   69  48  47 CALM      30.00S
OSU AIRPORT    SUNNY     68  49  50 NE5       30.00S
BOLTON FIELD   SUNNY     68  52  56 SE5       30.01S
RICKENBACK AFB NOT AVBL
NEWARK         SUNNY     65  51  60 NE5       30.02S
MARION         SUNNY     68  49  50 S3        30.00S
LANCASTER      SUNNY     70  51  51 NE8       30.00S
ZANESVILLE     SUNNY     67  51  56 NW6       30.01S
NEW PHILLY     SUNNY     68  57  68 NE5       30.02S
$$


USA.gov is the U.S. government's official web portal to all federal, state and local government web resources and services.